Aporé Airstrip

BR-0035 · 南马托格罗索州, 巴西

METAR的历史 BR-0035 · Aporé Airstrip

下面你可以看到过去几天的METARs。 选择年份以浏览从2007年开始的旧METAR。

2024年6月24日

时间 代码 天气 温度 能见度 天花板 METAR/SPECI
06:00
V
22 °C 10 km+ - 360° 360° 7 kt METAR SBCG 241000Z 36007KT CAVOK 22/15 Q1015
05:00
V
21 °C 10 km+ - 010° 010° 7 kt METAR SBCG 240900Z 01007KT CAVOK 21/15 Q1014
04:00
V
22 °C 10 km+ - 010° 010° 7 kt METAR SBCG 240800Z 01007KT CAVOK 22/15 Q1014
03:00
V
22 °C 10 km+ - 010° 010° 5 kt METAR SBCG 240700Z 01005KT CAVOK 22/16 Q1014
02:00
V
21 °C 10 km+ - 010° 010° 8 kt METAR SBCG 240600Z 01008KT CAVOK 21/16 Q1014
01:00
V
22 °C 10 km+ - 010° 010° 7 kt METAR SBCG 240500Z 01007KT CAVOK 22/16 Q1015
00:00
V
22 °C 10 km+ - 020° 020° 7 kt METAR SBCG 240400Z 02007KT CAVOK 22/16 Q1016

2024年6月23日

时间 代码 天气 温度 能见度 天花板 METAR/SPECI
23:00
V
22 °C 10 km+ - 010° 010° 7 kt METAR SBCG 240300Z 01007KT CAVOK 22/16 Q1016
22:00
V
24 °C 10 km+ - 010° 010° 7 kt METAR SBCG 240200Z 01007KT CAVOK 24/16 Q1015
21:00
V
23 °C 10 km+ - 010° 010° 7 kt METAR SBCG 240100Z 01007KT CAVOK 23/16 Q1015
20:00
V
24 °C 10 km+ - 010° 010° 6 kt METAR SBCG 240000Z 01006KT CAVOK 24/16 Q1014
19:00
V
25 °C 10 km+ - 010° 010° 5 kt METAR SBCG 232300Z 01005KT CAVOK 25/15 Q1014
18:00
V
27 °C 10 km+ - 350° 350° 4 kt METAR SBCG 232200Z 35004KT CAVOK 27/16 Q1013
17:00
V
28 °C 10 km+ - 350° 350° 6 kt METAR SBCG 232100Z 35006KT CAVOK 28/15 Q1013
16:00
V
30 °C 10 km+ - 330° 330° 10 kt METAR SBCG 232000Z 33010KT CAVOK 30/15 Q1012
15:00
V
31 °C 10 km+ - 340° 340° 12 kt METAR SBCG 231900Z 34012KT CAVOK 31/15 Q1012
14:00
V
31 °C 10 km+ - 340° 340° 14 kt METAR SBCG 231800Z 34014KT 300V360 9999 SCT045 31/15 Q1013
13:00
V
31 °C 10 km+ - 340° 340° 15 kt METAR SBCG 231700Z 34015KT 9999 SCT045 31/15 Q1013
12:00
V
30 °C 10 km+ - 330° 330° 16 kt METAR SBCG 231600Z 33016KT CAVOK 30/15 Q1014
11:00
V
30 °C 10 km+ - 330° 330° 18 kt METAR SBCG 231500Z 33018KT CAVOK 30/14 Q1015
10:00
V
29 °C 10 km+ - 350° 350° 15 kt METAR SBCG 231400Z 35015KT CAVOK 29/14 Q1016
09:00
V
28 °C 10 km+ - 360° 360° 10 kt METAR SBCG 231300Z 36010KT 330V030 CAVOK 28/14 Q1016
08:00
V
25 °C 10 km+ - 020° 020° 11 kt METAR SBCG 231200Z 02011KT CAVOK 25/13 Q1015
07:00
V
23 °C 10 km+ - 040° 040° 10 kt METAR SBCG 231100Z 04010KT CAVOK 23/13 Q1014
06:00
V
22 °C 10 km+ - 030° 030° 10 kt METAR SBCG 231000Z 03010KT CAVOK 22/14 Q1013
05:00
V
23 °C 10 km+ - 030° 030° 9 kt METAR SBCG 230900Z 03009KT CAVOK 23/15 Q1013
04:00
V
22 °C 10 km+ - 020° 020° 8 kt METAR SBCG 230800Z 02008KT CAVOK 22/14 Q1013
03:00
V
21 °C 10 km+ - 030° 030° 6 kt METAR SBCG 230700Z 03006KT CAVOK 21/14 Q1013
02:00
V
22 °C 10 km+ - 020° 020° 8 kt METAR SBCG 230600Z 02008KT CAVOK 22/14 Q1013
01:00
V
22 °C 10 km+ - 020° 020° 5 kt METAR SBCG 230500Z 02005KT CAVOK 22/14 Q1014
00:00
V
22 °C 10 km+ - 010° 010° 8 kt METAR SBCG 230400Z 01008KT CAVOK 22/14 Q1013

2024年6月22日

时间 代码 天气 温度 能见度 天花板 METAR/SPECI
23:00
V
23 °C 10 km+ - 360° 360° 6 kt METAR SBCG 230300Z 36006KT CAVOK 23/14 Q1014
22:00
V
24 °C 10 km+ - 010° 010° 8 kt METAR SBCG 230200Z 01008KT CAVOK 24/14 Q1014
21:00
V
24 °C 10 km+ - 360° 360° 8 kt METAR SBCG 230100Z 36008KT CAVOK 24/14 Q1014
20:00
V
23 °C 10 km+ - 010° 010° 7 kt METAR SBCG 230000Z 01007KT CAVOK 23/14 Q1014
19:00
V
25 °C 10 km+ - 360° 360° 6 kt METAR SBCG 222300Z 36006KT CAVOK 25/14 Q1013
18:00
V
26 °C 10 km+ - 340° 340° 6 kt METAR SBCG 222200Z 34006KT CAVOK 26/14 Q1013
17:00
V
29 °C 10 km+ - 340° 340° 8 kt METAR SBCG 222100Z 34008KT CAVOK 29/14 Q1012
16:00
V
30 °C 10 km+ - 340° 340° 12 kt METAR SBCG 222000Z 34012KT CAVOK 30/14 Q1012
15:00
V
31 °C 10 km+ - 340° 340° 13 kt METAR SBCG 221900Z 34013KT CAVOK 31/14 Q1012
14:00
V
31 °C 10 km+ - 340° 340° 14 kt METAR SBCG 221800Z 34014KT CAVOK 31/13 Q1012
13:00
V
31 °C 10 km+ - 330° 330° 15 kt METAR SBCG 221700Z 33015KT 300V010 CAVOK 31/13 Q1013
12:00
V
31 °C 10 km+ - 330° 330° 17 - 27 kt METAR SBCG 221600Z 33017G27KT 9999 SCT040 31/13 Q1014
11:00
V
30 °C 10 km+ - 340° 340° 17 kt METAR SBCG 221500Z 34017KT 9999 FEW040 30/14 Q1014
10:00
V
29 °C 10 km+ - 010° 010° 17 kt METAR SBCG 221400Z 01017KT CAVOK 29/15 Q1015
09:00
V
28 °C 10 km+ - 360° 360° 18 kt METAR SBCG 221300Z 36018KT CAVOK 28/15 Q1015
08:00
V
26 °C 10 km+ - 010° 010° 12 kt METAR SBCG 221200Z 01012KT CAVOK 26/15 Q1015
07:00
V
24 °C 10 km+ - 020° 020° 12 kt METAR SBCG 221100Z 02012KT CAVOK 24/14 Q1014
06:00
V
21 °C 10 km+ - 010° 010° 8 kt METAR SBCG 221000Z 01008KT CAVOK 21/13 Q1014
05:00
V
21 °C 10 km+ - 020° 020° 10 kt METAR SBCG 220900Z 02010KT CAVOK 21/12 Q1013
04:00
V
20 °C 10 km+ - 020° 020° 60 kt METAR SBCG 220800Z 02060KT CAVOK 20/11 Q1013
03:00
V
20 °C 10 km+ - 020° 020° 6 kt METAR SBCG 220700Z 02006KT CAVOK 20/12 Q1013
02:00
V
20 °C 10 km+ - 030° 030° 5 kt METAR SBCG 220600Z 03005KT CAVOK 20/12 Q1013
报告变更